#timestamp,LO_Frequency,Hit,StdDev 
1547982015.4,286047002.0,P
1547982035.2,286046998.1,Y
1547982055.1,286046999.1,P
1547982056.0,286046999.1,N
1547982075.8,286046997.0,N
1547982095.6,286046998.9,N
1547982115.5,286046999.5,N
1547982135.3,286046997.0,N
1547982155.2,286046996.5,N
1547982175.8,286046998.5,N
1547982195.6,286047000.7,N
1547982215.4,286047001.0,N
1547982235.3,286047000.6,N
1547982255.1,286046997.4,N
1547982275.8,286046998.0,N
1547982295.7,286046999.6,N
1547982315.5,286047000.1,N
1547982335.4,286047002.3,N
1547982355.2,286047001.3,N
1547982375.0,286047004.4,N
1547982375.9,286047004.4,N
1547982395.8,286047002.0,N
1547982415.6,286047004.0,N
1547982435.5,286047002.5,N
1547982455.3,286046999.9,N
1547982475.1,286046998.7,N
1547982495.9,286046996.9,N
1547982515.7,286046995.8,N
1547982535.6,286046995.0,N
1547982555.4,286046999.1,N
1547982575.2,286046997.0,N
1547982595.1,286046997.5,N
1547982596.0,286046997.5,N
1547982615.8,286046998.4,N
1547982635.6,286046999.3,N
1547982655.5,286046996.9,N
1547982675.3,286046998.3,N
1547982695.2,286046998.2,N
1547982715.9,286046999.7,N
1547982735.7,286047002.8,N
1547982755.6,286047001.1,N
1547982775.4,286046998.7,N
1547982795.3,286046995.4,N
1547982815.1,286046998.0,N
1547982816.0,286046998.0,N
1547982835.8,286046997.0,N
1547982855.7,286046998.2,N
1547982875.5,286046998.8,N
1547982895.3,286046998.2,N
1547982915.2,286046998.5,N
1547982935.0,286046998.3,N
1547982935.9,286046998.3,N
1547982955.8,286046998.1,N
1547982975.6,286046997.1,N
1547982995.4,286046997.1,N
1547983015.3,286046997.5,N
1547983035.1,286047001.2,N
1547983055.8,286046999.9,N
1547983075.7,286046999.8,N
1547983095.5,286047002.6,N
1547983115.4,286046999.7,N
1547983135.2,286046999.7,N
1547983155.0,286047000.6,N
1547983155.9,286047000.6,N
1547983175.8,286047000.9,N
1547983195.6,286046998.9,N
1547983215.5,286046997.1,N
1547983235.3,286046997.4,N
1547983255.1,286046999.6,N
1547983275.9,286046996.9,N
1547983295.7,286046996.9,N
1547983315.5,286046997.8,N
1547983335.4,286046995.0,Y
1547983355.2,286046998.2,P
1547983375.1,286047002.3,P
1547983376.0,286047002.3,N
1547983395.8,286047004.4,N
1547983415.6,286047001.7,N
1547983435.5,286047003.8,N
1547983455.3,286047004.8,N
1547983475.2,286047003.1,N
1547983495.9,286047002.8,N
1547983515.7,286046999.7,N
1547983535.6,286046998.3,N
1547983555.4,286046998.8,N
1547983575.3,286046999.5,N
1547983595.1,286046998.8,N
1547983596.0,286046998.8,N
1547983615.8,286046998.1,N
1547983635.2,286047000.7,N
1547983655.0,286047002.4,N
1547983655.9,286047002.4,N
1547983675.8,286046998.5,N
1547983695.6,286046997.7,N
1547983715.5,286046995.2,N
1547983735.3,286046997.1,N
1547983755.1,286046996.5,N
1547983775.9,286046997.9,N
1547983795.7,286046996.8,N
1547983815.9,286046996.9,N
1547983835.7,286046996.9,N
1547983855.5,286046996.6,N
1547983875.4,286046999.4,N
1547983895.2,286046999.2,N
1547983915.1,286046997.4,N
1547983916.0,286046997.4,N
1547983935.8,286046996.8,N
1547983955.6,286046994.9,N
1547983975.5,286046996.4,N
1547983995.3,286046995.6,N
1547984015.1,286046997.7,N
1547984035.9,286046995.4,N
1547984055.7,286046995.1,N
1547984075.6,286046997.5,N
1547984095.4,286046996.9,N
1547984115.2,286046997.0,N
1547984135.1,286046999.6,N
1547984136.0,286046999.6,N
1547984155.8,286046997.2,N
1547984175.7,286047001.2,N
1547984195.5,286047002.5,N
1547984215.3,286047002.5,N
1547984235.2,286047000.9,N
1547984255.0,286046998.2,N
1547984255.9,286046998.2,N
1547984275.7,286046998.2,N
1547984295.6,286046998.2,N
1547984315.4,286046999.7,N
1547984335.3,286047001.8,N
1547984355.1,286047001.5,N
1547984356.0,286047001.5,N
1547984375.8,286047004.1,N
1547984395.7,286047000.5,N
1547984415.5,286046999.3,N
1547984435.3,286047000.5,N
1547984455.2,286047000.5,N
1547984475.9,286047001.1,N
1547984495.7,286046999.7,N
1547984515.6,286047001.5,N
1547984535.4,286047001.5,N
1547984555.2,286047002.6,N
1547984575.1,286047000.2,N
1547984576.0,286047000.2,N
1547984595.8,286047000.5,N
1547984615.7,286046998.9,N
1547984635.5,286046999.3,N
1547984655.3,286046998.2,N
1547984675.2,286047000.3,N
1547984695.0,286047002.7,N
1547984695.9,286047002.7,N
1547984715.8,286047002.6,N
1547984735.6,286047004.3,N
1547984755.4,286047002.0,N
1547984775.3,286047004.4,N
1547984795.1,286047005.6,Y
1547984815.9,286047002.9,P
1547984835.7,286047005.6,P
1547984855.5,286047003.6,N
1547984875.4,286047001.6,N
1547984895.2,286047000.1,N
1547984915.0,286046999.8,N
1547984915.9,286046999.8,N
1547984935.8,286046998.2,N
1547984955.6,286047000.8,N
1547984975.5,286046996.5,N
1547984995.3,286046999.5,N
1547985015.1,286046999.6,N
1547985035.9,286046999.5,N
1547985055.7,286046998.4,N
1547985075.5,286046998.1,N
1547985095.4,286047000.6,N
1547985115.2,286046999.0,N
1547985135.0,286046999.4,N
1547985136.0,286046999.4,N
1547985155.8,286047000.6,N
1547985175.6,286047000.9,N
1547985195.5,286047000.7,N
1547985215.3,286046999.8,N
1547985235.1,286047000.5,N
1547985255.9,286046998.1,N
1547985275.7,286047000.7,N
1547985295.5,286047001.8,N
1547985315.4,286047001.4,N
1547985335.2,286047001.9,N
1547985355.1,286047002.5,N
1547985356.0,286047002.5,N
1547985375.8,286047000.1,N
1547985395.6,286047002.2,N
1547985415.5,286047002.5,N
1547985435.3,286047001.9,N
1547985455.2,286047004.0,N
1547985475.9,286047003.9,N
1547985495.7,286047004.3,N
1547985515.6,286047001.6,N
1547985535.4,286047002.2,N
1547985555.2,286047000.6,N
1547985575.1,286047002.2,N
1547985576.0,286047002.2,N
1547985595.8,286046998.1,N
